Flag for Zimbabwe Weather past 2 weeks in Harare, Zimbabwe

Now
86 °F

Passing clouds.


Feels Like: 83 °F
Forecast: 59 / 85 °F
Wind: 6 mph from Southeast

Location: Harare Kutsaga Airport

Current Time: Sep 2, 2015 at 4:52:26 PM

Latest Report: Sep 2, 2015 at 4:00 PM


Visibility: N/A

Pressure: 30.12 "Hg (25.46 "Hg at 1490m altitude)

Humidity: 19%

Dew point: 39 °F

Location of HarareLocation

Historic Weather in Harare — Graph

°F

Harare temperature yesterday

Maximum temperature yesterday: 90 °F (at 1:00 PM)
Minimum temperature yesterday: 57 °F (at 2:00 AM)
Average temperature yesterday: 70 °F

Past Weeks' High & Low Weather Summary

 TemperatureHumidityPressure
High90 °F (Sep 1, 1:00 PM)100% (Aug 19, 5:00 AM)30.42 "Hg (Aug 19, 5:00 AM)
Low45 °F (Aug 27, 6:00 AM)13% (Aug 31, 5:00 PM)30.07 "Hg (Aug 31, 5:00 PM)
Average67 °F48%30.26 "Hg
* Reported Aug 18 3:00 PM — Sep 2 3:00 PM, Harare, Weather by CustomWeather, © 2015

Note: Actual official high and low records may vary slightly from our data, if they occured in-between our weather recording intervals... More about our weather records

Advertising

Harare weather history for previous 24 hours

 ConditionsComfort  
Time TempWeatherWind HumidityBarometerVisibility
3:00 PM
Wed, Sep 2
86 °FPassing clouds.7 mph19%30.12 "HgN/A
1:00 PM82 °FSunny.3 mph23%30.18 "Hg10 mi
12:00 PM82 °FSunny.7 mph23%30.18 "Hg10 mi
11:00 AM81 °FPassing clouds.9 mph24%30.21 "HgN/A
10:00 AM79 °FPassing clouds.13 mph26%30.24 "HgN/A
9:00 AM75 °FClear.14 mph31%30.24 "Hg4 mi
8:00 AM70 °FHaze.10 mph40%30.24 "Hg3 mi
6:00 AM55 °FClear.6 mph67%30.18 "Hg10 mi
5:00 AM57 °FClear.8 mph63%30.15 "Hg10 mi
3:00 AM61 °FClear.12 mph55%30.15 "Hg10 mi
2:00 AM61 °FClear.9 mph55%30.18 "Hg10 mi
12:00 AM63 °FClear.8 mph45%30.21 "Hg10 mi
11:00 PM
Tue, Sep 1
64 °FClear.8 mph43%30.21 "Hg10 mi
10:00 PM68 °FClear.10 mph38%30.21 "Hg10 mi
9:00 PM68 °FClear.10 mph38%30.21 "Hg10 mi
8:00 PM66 °FClear.7 mph40%30.18 "Hg10 mi
7:00 PM70 °FClear.9 mph35%30.18 "Hg10 mi
6:00 PM72 °FClear.9 mph33%30.15 "Hg10 mi
5:00 PM79 °FSunny.7 mph26%30.15 "Hg10 mi
4:00 PM82 °FSunny.6 mph21%30.15 "Hg10 mi
Weather by CustomWeather, © 2015

See weather overviewHow to use our weather pages